TimeEDT,TemperatureF,Dew PointF,Humidity,Sea Level PressureIn,VisibilityMPH,Wind Direction,Wind SpeedMPH,Gust SpeedMPH,PrecipitationIn,Events,Conditions,WindDirDegrees,DateUTC
12:15 AM,39.4,32.0,75,30.20,7.0,South,6.9,-,N/A,Rain,Light Rain,180,2012-10-14 04:15:00
12:35 AM,38.8,32.9,79,30.20,7.0,South,13.8,19.6,N/A,Rain,Rain,170,2012-10-14 04:35:00
12:55 AM,37.9,33.4,84,30.20,4.0,South,9.2,17.3,N/A,Rain,Rain,190,2012-10-14 04:55:00
1:15 AM,37.0,33.3,86,30.20,4.0,South,8.1,19.6,N/A,,Overcast,170,2012-10-14 05:15:00
1:35 AM,36.9,33.6,88,30.19,5.0,South,11.5,-,N/A,,Overcast,170,2012-10-14 05:35:00
1:55 AM,36.9,34.0,89,30.17,7.0,SSE,9.2,-,N/A,,Overcast,150,2012-10-14 05:55:00
2:15 AM,36.9,34.2,90,30.14,7.0,SE,8.1,-,N/A,,Overcast,130,2012-10-14 06:15:00
2:35 AM,36.9,34.7,92,30.12,5.0,SE,8.1,-,N/A,,Overcast,130,2012-10-14 06:35:00
2:55 AM,36.9,34.7,92,30.09,5.0,SE,9.2,16.1,N/A,,Overcast,140,2012-10-14 06:55:00
3:15 AM,36.9,34.7,92,30.07,5.0,SSE,11.5,-,N/A,,Overcast,160,2012-10-14 07:15:00
3:55 AM,38.3,35.2,89,30.04,5.0,South,10.4,-,N/A,Rain,Light Rain,170,2012-10-14 07:55:00
4:15 AM,38.3,35.6,90,30.03,5.0,South,11.5,18.4,N/A,Rain,Rain,170,2012-10-14 08:15:00
4:35 AM,38.3,35.2,89,30.03,7.0,SSE,11.5,16.1,N/A,,Drizzle,160,2012-10-14 08:35:00
4:55 AM,39.0,35.8,88,30.03,7.0,South,9.2,16.1,N/A,Rain,Light Rain,190,2012-10-14 08:55:00
5:15 AM,39.0,35.8,88,30.02,3.0,South,5.8,-,N/A,Rain,Rain,170,2012-10-14 09:15:00
5:35 AM,39.2,36.3,89,30.01,7.0,South,5.8,-,N/A,Rain,Light Rain,170,2012-10-14 09:35:00
5:55 AM,39.4,36.1,88,30.02,10.0,South,11.5,16.1,N/A,Rain,Light Rain,170,2012-10-14 09:55:00
6:15 AM,39.4,36.5,89,30.01,7.0,South,6.9,-,N/A,Rain,Light Rain,170,2012-10-14 10:15:00
6:35 AM,39.7,36.9,89,30.01,7.0,South,8.1,18.4,N/A,,Drizzle,180,2012-10-14 10:35:00
7:15 AM,40.6,37.8,89,30.00,5.0,South,9.2,16.1,N/A,Rain,Rain,180,2012-10-14 11:15:00
7:35 AM,40.6,38.1,91,30.00,10.0,South,8.1,-,N/A,,Light Drizzle,170,2012-10-14 11:35:00
7:55 AM,41.7,39.2,91,30.01,10.0,SSW,9.2,-,N/A,,Overcast,200,2012-10-14 11:55:00
8:15 AM,41.9,39.2,90,30.01,10.0,South,6.9,-,N/A,,Overcast,180,2012-10-14 12:15:00
8:35 AM,42.3,39.6,90,30.00,10.0,South,6.9,16.1,N/A,,Overcast,190,2012-10-14 12:35:00
8:55 AM,43.5,40.6,90,30.00,10.0,South,8.1,-,N/A,,Drizzle,190,2012-10-14 12:55:00
9:15 AM,44.2,41.9,91,30.00,5.0,South,8.1,-,N/A,,Drizzle,170,2012-10-14 13:15:00
9:35 AM,44.2,41.9,91,29.99,7.0,South,10.4,17.3,N/A,,Drizzle,180,2012-10-14 13:35:00
9:55 AM,44.2,41.9,91,29.99,7.0,South,10.4,-,N/A,,Light Drizzle,180,2012-10-14 13:55:00
10:15 AM,46.8,43.9,90,30.00,10.0,South,9.2,17.3,N/A,,Overcast,190,2012-10-14 14:15:00
10:35 AM,46.8,43.7,89,30.00,10.0,SSW,6.9,-,N/A,,Overcast,200,2012-10-14 14:35:00
10:55 AM,46.8,43.3,88,30.00,10.0,South,10.4,-,N/A,,Overcast,180,2012-10-14 14:55:00
11:15 AM,46.8,43.2,87,30.00,10.0,South,5.8,-,N/A,,Overcast,170,2012-10-14 15:15:00
11:35 AM,46.8,43.3,88,30.00,10.0,South,8.1,-,N/A,,Overcast,180,2012-10-14 15:35:00
11:55 AM,46.8,43.7,89,29.99,10.0,South,5.8,-,N/A,,Overcast,180,2012-10-14 15:55:00
12:15 PM,46.8,43.2,87,29.99,10.0,South,5.8,-,N/A,,Overcast,190,2012-10-14 16:15:00
12:35 PM,46.8,42.8,86,29.98,10.0,South,5.8,-,N/A,,Overcast,180,2012-10-14 16:35:00
12:55 PM,46.8,42.8,86,29.98,10.0,South,5.8,-,N/A,,Overcast,170,2012-10-14 16:55:00
1:15 PM,46.8,43.7,89,29.96,5.0,South,8.1,-,N/A,,Light Drizzle,170,2012-10-14 17:15:00
1:35 PM,46.8,43.7,89,29.95,7.0,South,8.1,-,N/A,,Overcast,170,2012-10-14 17:35:00
1:55 PM,46.8,44.1,90,29.94,7.0,SSE,9.2,-,N/A,,Overcast,160,2012-10-14 17:55:00
2:15 PM,46.8,44.1,90,29.95,7.0,South,5.8,-,N/A,,Overcast,180,2012-10-14 18:15:00
2:55 PM,47.1,44.6,91,29.93,4.0,South,6.9,-,N/A,,Drizzle,170,2012-10-14 18:55:00
3:15 PM,47.7,45.5,92,29.91,5.0,SSE,6.9,-,N/A,Rain,Rain,160,2012-10-14 19:15:00
3:55 PM,48.7,46.6,92,29.90,10.0,SSE,5.8,-,N/A,,Drizzle,160,2012-10-14 19:55:00
4:15 PM,49.3,47.1,92,29.89,10.0,Calm,Calm,-,N/A,,Light Drizzle,0,2012-10-14 20:15:00
4:35 PM,49.3,47.3,93,29.90,10.0,Calm,Calm,-,N/A,Rain,Rain,0,2012-10-14 20:35:00
5:15 PM,49.3,47.3,93,29.88,10.0,South,4.6,-,N/A,,Overcast,170,2012-10-14 21:15:00
5:35 PM,50.9,48.7,92,29.87,10.0,SSE,5.8,-,N/A,,Overcast,160,2012-10-14 21:35:00
5:55 PM,51.8,49.3,91,29.86,10.0,South,4.6,-,N/A,,Overcast,170,2012-10-14 21:55:00
6:15 PM,51.8,49.3,91,29.85,10.0,SSE,5.8,-,N/A,,Overcast,160,2012-10-14 22:15:00
6:35 PM,51.8,49.1,90,29.85,10.0,South,5.8,-,N/A,,Overcast,170,2012-10-14 22:35:00
6:55 PM,51.8,48.7,89,29.84,10.0,South,5.8,-,N/A,,Overcast,180,2012-10-14 22:55:00
7:15 PM,51.8,48.4,88,29.83,10.0,South,6.9,-,N/A,,Overcast,170,2012-10-14 23:15:00
7:35 PM,53.8,49.8,86,29.82,10.0,South,5.8,-,N/A,,Overcast,180,2012-10-14 23:35:00
7:55 PM,54.5,50.0,85,29.81,10.0,South,5.8,-,N/A,,Overcast,180,2012-10-14 23:55:00
8:15 PM,54.5,49.5,83,29.81,10.0,South,10.4,-,N/A,,Overcast,170,2012-10-15 00:15:00
8:35 PM,54.7,49.3,82,29.80,10.0,South,8.1,-,N/A,,Mostly Cloudy,190,2012-10-15 00:35:00
8:55 PM,56.8,50.4,79,29.78,10.0,South,9.2,20.7,N/A,,Clear,180,2012-10-15 00:55:00
9:15 PM,56.8,49.5,76,29.77,10.0,South,10.4,18.4,N/A,,Clear,180,2012-10-15 01:15:00
9:35 PM,56.8,49.3,76,29.77,10.0,South,8.1,18.4,N/A,,Clear,180,2012-10-15 01:35:00
9:55 PM,57.4,50.0,76,29.77,10.0,South,10.4,20.7,N/A,,Clear,190,2012-10-15 01:55:00
10:15 PM,58.1,50.2,75,29.76,10.0,South,11.5,20.7,N/A,,Clear,170,2012-10-15 02:15:00
10:35 PM,58.1,50.4,75,29.75,10.0,South,12.7,21.9,N/A,,Clear,170,2012-10-15 02:35:00
10:55 PM,58.1,49.8,74,29.74,10.0,South,15.0,26.5,N/A,,Clear,170,2012-10-15 02:55:00
11:15 PM,59.0,50.0,72,29.73,10.0,South,11.5,28.8,N/A,,Clear,170,2012-10-15 03:15:00
11:35 PM,59.4,50.0,71,29.74,10.0,South,12.7,19.6,N/A,,Clear,170,2012-10-15 03:35:00
11:55 PM,59.4,49.8,71,29.72,10.0,South,13.8,23.0,N/A,,Clear,180,2012-10-15 03:55:00